Butterworth, Malaysia

5:17 PM MYT on February 21, 2017 (GMT +0800)
Butterworth

Weather History for WMKB - January, 2014

Change the Weather History Date:

Thursday, January 23, 2014

  Actual Average Record
Temperature  
Mean Temperature 79 °F -  
Max Temperature 89 °F - - ()
Min Temperature 69 °F - - ()
Cooling Degree Days 14    
Growing Degree Days 29 (Base 50)    
Moisture  
Dew Point 68 °F    
Average Humidity 70    
Maximum Humidity 94    
Minimum Humidity 46    
Precipitation  
Precipitation 0.00 in - - ()
Sea Level Pressure  
Sea Level Pressure 29.89 in    
Wind  
Wind Speed 5 mph ()    
Max Wind Speed 14 mph    
Max Gust Speed -    
Visibility 4.8 miles    
Events      
T = Trace of Precipitation, MM = Missing Value Source: Averaged Metar Reports

Daily Weather History Graph

Daily Weather History Graph

Search for Another Location

Airport or City:

Trip Planner

Search our weather history database for the weather conditions in past years. The results will help you decide how hot, cold, wet, or windy it might be!

Date:

Astronomy

Jan. 23, 2014 Rise Set
Actual Time 6:34 AM WIB 6:26 PM WIB
Civil Twilight 6:12 AM WIB 6:48 PM WIB
Nautical Twilight 5:46 AM WIB 7:13 PM WIB
Astronomical Twilight 5:21 AM WIB 7:39 PM WIB
Moon 11:52 PM WIB (1/23) 11:19 AM WIB (1/23)
Length of Visible Light 12h 35m
Length of Day
11h 51m
Waning Gibbous, 60% of the Moon is Illuminated
Jan 23
Waning Gibbous
Jan 24
Last Quarter
Jan 31
New
Feb 7
First Quarter
Feb 15
Full

Hourly Weather History & Observations

Time (WIB) Temp. Heat Index Dew Point Humidity Pressure Visibility Wind Dir Wind Speed Gust Speed Precip Events Conditions
12:00 AM 77.0 °F - 68.0 °F 74% 29.92 in 5.0 mi North 4.6 mph - N/A   Mostly Cloudy
1:00 AM 73.4 °F - 69.8 °F 88% 29.92 in 5.0 mi NNE 4.6 mph - N/A   Mostly Cloudy
2:00 AM 73.4 °F - 68.0 °F 83% 29.89 in 5.0 mi Calm Calm - N/A   Mostly Cloudy
3:00 AM 71.6 °F - 68.0 °F 88% 29.89 in 5.0 mi Calm Calm - N/A   Mostly Cloudy
4:00 AM 71.6 °F - 68.0 °F 88% 29.89 in 5.0 mi Calm Calm - N/A   Mostly Cloudy
5:00 AM 71.6 °F - 68.0 °F 88% 29.89 in 4.3 mi East 3.5 mph - N/A   Mostly Cloudy
6:00 AM 69.8 °F - 68.0 °F 94% 29.89 in 4.3 mi Calm Calm - N/A   Mostly Cloudy
7:00 AM 69.8 °F - 68.0 °F 94% 29.92 in 4.3 mi Calm Calm - N/A   Mostly Cloudy
8:00 AM 75.2 °F - 68.0 °F 78% 29.95 in 4.3 mi NNE 4.6 mph - N/A   Mostly Cloudy
9:00 AM 80.6 °F 83.2 °F 68.0 °F 65% 29.95 in 4.3 mi ENE 9.2 mph - N/A   Mostly Cloudy
10:00 AM 82.4 °F 84.6 °F 66.2 °F 58% 29.95 in 5.0 mi ENE 13.8 mph - N/A   Mostly Cloudy
11:00 AM 86.0 °F 88.2 °F 66.2 °F 51% 29.95 in 5.0 mi NE 13.8 mph - N/A   Mostly Cloudy
12:00 PM 87.8 °F 90.4 °F 66.2 °F 49% 29.92 in 5.0 mi ENE 11.5 mph - N/A   Mostly Cloudy
1:00 PM 89.6 °F 92.2 °F 66.2 °F 46% 29.86 in 5.0 mi NE 9.2 mph - N/A   Mostly Cloudy
2:00 PM 86.0 °F 91.8 °F 71.6 °F 62% 29.83 in 5.0 mi WNW 11.5 mph - N/A   Mostly Cloudy
3:00 PM 87.8 °F 93.8 °F 71.6 °F 58% 29.80 in 5.0 mi West 8.1 mph - N/A   Mostly Cloudy
4:00 PM 86.0 °F 91.8 °F 71.6 °F 62% 29.80 in 5.0 mi NW 10.4 mph - N/A   Mostly Cloudy
5:00 PM 87.8 °F 91.4 °F 68.0 °F 52% 29.83 in 5.0 mi NNE 9.2 mph - N/A   Mostly Cloudy
6:00 PM 86.0 °F 88.2 °F 66.2 °F 51% 29.83 in 5.0 mi North 8.1 mph - N/A   Mostly Cloudy
7:00 PM 82.4 °F 85.4 °F 68.0 °F 62% 29.86 in 5.0 mi NNE 4.6 mph - N/A   Mostly Cloudy
8:00 PM 78.8 °F - 68.0 °F 69% 29.89 in 5.0 mi NNE 4.6 mph - N/A   Mostly Cloudy
9:00 PM 77.0 °F - 68.0 °F 74% 29.92 in 5.0 mi NE 4.6 mph - N/A   Mostly Cloudy
10:00 PM 77.0 °F - 68.0 °F 74% 29.92 in 4.3 mi NE 6.9 mph - N/A   Mostly Cloudy
11:00 PM 75.2 °F - 68.0 °F 78% 29.92 in 4.3 mi NE 6.9 mph - N/A   Mostly Cloudy